Regional Weather Roundup
Issued by NWS

Home | Current Version | Previous Version | Graphics & Text | Print | Product List | Glossary Off
Versions: 1 2 3 4 5 6 7 8 9 10 11 12 13 14 15 16 17 18 19 20 21 22 23 24 25 26 27 28 29 30 31 32 33 34 35 36 37 38 39 40 41 42 43 44 45 46 47 48 49 50

000
ASUS43 KMKX 230900
RWRWI

WISCONSIN REGIONAL WEATHER ROUNDUP
NATIONAL WEATHER SERVICE MILWAUKEE/SULLIVAN WI
400 AM CDT SAT SEP 23 2017

NOTE: "FAIR" INDICATES FEW OR NO CLOUDS BELOW 12,000 FEET WITH NO
SIGNIFICANT WEATHER AND/OR OBSTRUCTIONS TO VISIBILITY.

WIZ001-002-006>008-014>016-023>028-231000-
NORTHWEST WISCONSIN

CITY           SKY/WX    TMP DP  RH WIND       PRES   REMARKS
SUPERIOR ARPT  CLOUDY    62  62  99 CALM      29.81F
ASHLAND        CLOUDY    76  67  73 S17G24    29.85S
HAYWARD        PTCLDY    74  66  76 S7        29.91S
SIREN          PTCLDY    76  65  70 S8        29.88S
CUMBERLAND     MOCLDY    70  64  83 S7        29.91S
RICE LAKE      MOCLDY    73  65  78 SE7       29.93S
CHETEK           N/A     69  67  92 E12       29.93R
LADYSMITH      CLOUDY    72  66  83 S6        29.97R
EAU CLAIRE     NOT AVBL
MENOMONIE      CLEAR     73  65  75 SE7       29.92R
NEW RICHMOND   CLOUDY    75  65  70 S10       29.89F
OSCEOLA        CLOUDY    77  66  69 S8        29.90S
$$

WIZ003>005-009-010-017-018-231000-
NORTH CENTRAL WISCONSIN

CITY           SKY/WX    TMP DP  RH WIND       PRES   REMARKS
MANITOWISH WTR NOT AVBL
ARBOR VITAE    CLOUDY    72  68  88 S7        29.98S
WOODRUFF       CLOUDY    72  68  88 S7        29.98S
RHINELANDER    CLEAR     71  66  84 SW7       30.01R
EAGLE RIVER    PTCLDY    64  64 100 CALM      29.99S FOG
LAND O LAKES   PTCLDY    64  64  99 CALM      30.00S FOG
PHILLIPS       CLOUDY    71  67  89 S6        29.96S
TOMAHAWK       CLEAR     64  63  96 CALM      30.00R
MEDFORD        PTCLDY    66  63  91 CALM      29.98S
MERRILL        CLEAR     69  65  88 S3        29.99S
$$

WIZ029-030-035-036-043>047-231000-
CENTRAL WISCONSIN

CITY           SKY/WX    TMP DP  RH WIND       PRES   REMARKS
WAUSAU         CLEAR     70  64  81 CALM      29.98R
MOSINEE        CLEAR     64  63  94 S8        30.00S
MARSHFIELD     MOCLDY    69  63  81 S6        29.98R
STEVENS POINT  CLEAR     71  64  78 S8        30.00R
WAUPACA        CLEAR     67  66  94 CALM      30.00R
WAUTOMA        CLEAR     62  62 100 CALM      30.01R
WISC RAPIDS    CLEAR     71  64  78 S6        30.00R
CAMP DOUGLAS   NOT AVBL
$$

WIZ011>013-019>022-031-037>040-048>050-231000-
NORTHEAST WISCONSIN

CITY           SKY/WX    TMP DP  RH WIND       PRES   REMARKS
ANTIGO         CLEAR     65  64  96 CALM      30.02S
SHAWANO        CLEAR     68  64  87 CALM      29.99R
OCONTO         CLEAR     68  64  86 SW3       29.98R
STURGEON BAY   CLEAR     73  64  73 S7        30.00R
GREEN BAY      CLEAR     69  66  90 S6        30.00R
MANITOWOC      CLEAR     73  65  75 SW3       30.01R
APPLETON       CLEAR     70  59  68 S8        29.99S
CLINTONVILLE   CLEAR     70  63  78 S3        29.99S
OSHKOSH        CLEAR     72  64  76 S9        30.00S
$$

WIZ032>034-041-042-053>061-231000-
SOUTHWEST WISCONSIN

CITY           SKY/WX    TMP DP  RH WIND       PRES   REMARKS
LA CROSSE      CLEAR     76  67  73 S8        29.94R
SPARTA         CLEAR     75  65  69 S8        29.97R
VIROQUA        CLEAR     72  66  81 S9        30.00S
BOSCOBEL       PTCLDY    72  64  76 S3        29.99R
PRAIRIE DU CHI CLEAR     73  62  66 E6        29.98R
PLATTEVILLE    CLEAR     72  67  83 S7        30.02R
$$

WIZ056-057-062-063-064-067-068-231000-
SOUTH CENTRAL WISCONSIN

CITY           SKY/WX    TMP DP  RH WIND       PRES   REMARKS
REEDSBURG      CLEAR     73  64  75 S5        29.99S
BARABOO/DELLS  CLEAR     70  62  75 S5        30.00S
LONE ROCK      NOT AVBL
MINERAL POINT  CLEAR     70  66  88 SE5       30.02S
MADISON        CLEAR     67  65  93 CALM      30.02R
MIDDLETON      CLEAR     73  64  73 SW3       30.02S
WATERTOWN      CLEAR     66  65  94 CALM      30.02R
MONROE         CLEAR     68  63  83 S8        30.02F
JANESVILLE     CLEAR     70  63  78 CALM      30.02S
$$

WIZ051-052-058>065-066-070>072-231000-
SOUTHEAST WISCONSIN

CITY           SKY/WX    TMP DP  RH WIND       PRES   REMARKS
MILWAUKEE      CLEAR     75  67  76 SW7       30.02S
WAUKESHA       CLEAR     70  63  78 S5        30.04S
MILWAUKEE/TIMM CLEAR     72  61  68 S3        30.03S
RACINE         CLEAR     73  67  81 S5        30.04R
BURLINGTON     CLEAR     63  63 100 CALM      30.03S
KENOSHA        CLEAR     70  65  84 CALM      30.04R
FOND DU LAC    CLEAR     69  62  78 S6        30.02R
SHEBOYGAN      CLEAR     68  66  93 SW6       30.02R
WEST BEND        N/A     66  64  94 CALM      30.03S
JUNEAU         CLEAR     68  63  83 CALM      30.04R
$$

LSZ147-162-231000-
LAKE SUPERIOR

STATION/POSITION TIME  TEMP    WIND        PRES    WAVE
                       AIR SEA DIR/SP/G            HT/PER
                 (UTC) (F)     (DEG/KT/KT) (MB)    (FT/S)
W MID LAKE BUOY  0750   63 54  230/ 10/ 12 1009.6S   2/ 5
DEVILS ISLAND    0800   70     170/  6/  8 1009.4F
SAXON HARBOR     0840   80     200/ 18/ 23 1010.2S
$$

LMZ867-665-643>646-231000-
LAKE MICHIGAN

STATION/POSITION TIME  TEMP    WIND        PRES    WAVE
                       AIR SEA DIR/SP/G            HT/PER
                 (UTC) (F)     (DEG/KT/KT) (MB)    (FT/S)
S GREEN BAY BUOY 0800   68 67  190/  4/  6 1014.9
N MID LAKE BUOY  0750   69 66  190/ 10/ 12 1015.7R   2/ 4
NORTHPORT PIER   0840   67        CALM     1014.9S
KEWAUNEE LAKESHO 0830   72     240/  4/  5 1015.0R
SHEBOYGAN LAKESH 0800   72     210/  7/  9 1015.6S
PORT WASHINGTON  0830   75     270/  4/  6 1017.3R
ATWATER BUOY     0739   72 63  200/  6/  8 1016.4F
MILWAUKEE LAKESH 0830   78     240/  9/ 10   N/A
S MID LAKE BUOY  0750   73 70  160/  8/ 10 1016.6F   0
KENOSHA   LAKESH 0800   76     170/  6/  7 1016.3
$$

TC  - TEMPERATURE IN CELSIUS
VSB - VISIBILITY IN STATUTE MILES
WCI - WIND CHILL INDEX
HX  - HEAT INDEX





USA.gov is the U.S. government's official web portal to all federal, state and local government web resources and services.